User: anonymous   Login
Location: Choisy
(48.7685°N, 2.4187°E)
Time: 08:54:21
(UTC+00:00)
Language:

ONEWEB-0020 - Orbit

View from above orbital plane
View from above orbital plane
View from above satellite
View from above satellite

Ground track
Ground track

The orbit data is extracted from the following two-line orbital elements,

1 45133U 20008C   24205.94917419 -.00000586  00000-0 -17161-2 0  9992
2 45133  87.8961 174.1342 0001885  86.3480 273.7863 13.10374811217555
Epoch (UTC): 23 July 2024 22:46:48
Eccentricity: 0.0001885
inclination: 87.8961°
perigee height: 1220 km
apogee height: 1223 km
right ascension of ascending node: 174.1342°
argument of perigee: 86.3480°
revolutions per day: 13.10374811
mean anomaly at epoch: 273.7863°
orbit number at epoch: 21755

The dashed part of the orbit path shows where the satellite is in the earth's shadow,  

DLR